sat.trackr.live / text

‹ back to catalog

STARLINK-11510 [DTC]

NORAD 62516 · 2025-004F

PAYLOAD ACTIVE UNKNOWN

§ Identity

Operator
Country
US
Launch date
2025-01-08
Launch site
AFETR
Launch vehicle
Mass (kg)
RCS (m²)

Purposes: comms

External: N2YO · Heavens-Above · Gunter

§ Orbital elements

Epoch: 2026-05-25T00:00:02.000160Z

Period
91.67 min
Inclination
43.0000°
Eccentricity
0.0001690
Mean motion
15.70793232 rev/d
Perigee alt
355.5 km
Apogee alt
357.8 km
Semi-major
6,734.8 km
B*
5.9199e-4
RAAN
331.0289°
Arg perigee
276.7357°
Mean anomaly
209.4656°
Rev number
600

§ Raw data

STARLINK-11510 [DTC]1 62516U 25004F   26145.00002315  .00076060  00000+0  59199-3 0  99942 62516  43.0000 331.0289 0001690 276.7357 209.4656 15.70793232  6005

JSON: /api/v1/satellites/62516 · /tle

For live sub-satellite position, see the globe view (requires WebGL).

§ Visibility from observer

Set your observer location to see the next 7 days of passes ≥ 10°. The values pass through the URL so the page stays shareable.

No JS? Fill the form by hand. The geolocation button needs JavaScript.